Torna al catalogo

BREEZE-M DEB

TANK

AttivoHEO
NORAD 38344·DEBRIS·🇷🇺 Russia

Lanciato May 17, 2012 da Baikonur Cosmodrome

Loading…

Prossimi Passaggi (prossime 24 ore)

TLE

AggiornatoSource: Space-Track

Epoca: Sep 13, 2026, 23:35 UTC

1 38344U 12026C   26256.98302411  .00004607  00000-0  10199-2 0  9991
2 38344  49.3144 261.2507 6163526 298.7485  13.3160  3.79772047184973

Traccia BREEZE-M DEB in tempo reale con AllMySat

Download on the App Store